sat.trackr.live / text

‹ back to catalog

NPSAT1

NORAD 44340 · 2019-036B

PAYLOAD ACTIVE UNKNOWN

§ Identity

Operator
Country
US
Launch date
2019-06-25
Launch site
AFETR
Launch vehicle
Mass (kg)
RCS (m²)

External: N2YO · Heavens-Above · Gunter

§ Orbital elements

Epoch: 2026-09-03T19:15:35.779680Z

Period
97.61 min
Inclination
23.9994°
Eccentricity
0.0007687
Mean motion
14.75201384 rev/d
Perigee alt
639.1 km
Apogee alt
649.9 km
Semi-major
7,022.6 km
B*
3.9938e-4
RAAN
65.4756°
Arg perigee
19.3935°
Mean anomaly
340.6853°
Rev number
38,411

§ Raw data

NPSAT11 44340U 19036B   26246.80249745  .00003010  00000+0  39938-3 0  99912 44340  23.9994  65.4756 0007687  19.3935 340.6853 14.75201384384115

JSON: /api/v1/satellites/44340 · /tle

For live sub-satellite position, see the globe view (requires WebGL).

§ Visibility from observer

Set your observer location to see the next 7 days of passes ≥ 10°. The values pass through the URL so the page stays shareable.

No JS? Fill the form by hand. The geolocation button needs JavaScript.

§ Radio — SatNOGS DB

ModeDescriptionDownlinkUplink
CERTO CERTO 2 400.032 MHz

1 transmitter · refreshed weekly from db.satnogs.org